Torna al catalogo

STARLINK-30049

AttivoComunicazioniVLEO
NORAD 56294·PAYLOAD·🇺🇸 United States

Lanciato Apr 19, 2023 da Cape Canaveral Space Force Station

Loading…

Prossimi Passaggi (prossime 24 ore)

TLE

AggiornatoSource: CelesTrak SupGP

Epoca: Sep 15, 2026, 03:08 UTC

1 56294C 23056J   26258.13104167 -.00037350  00000+0 -13530-2 0  2589
2 56294  43.0021 219.2488 0001365 273.7205 297.2707 15.27591745    14

Traccia STARLINK-30049 in tempo reale con AllMySat

Download on the App Store